Regional Weather Roundup
Issued by NWS

Home | Current Version | Previous Version | Graphics & Text | Print | Product List | Glossary On
Versions: 1 2 3 4 5 6 7 8 9 10 11 12 13 14 15 16 17 18 19 20 21 22 23 24 25 26 27 28 29 30 31 32 33 34 35 36 37 38 39 40 41 42 43 44 45 46 47 48 49 50
000
ASUS44 KMEG 050910
RWRTN
TENNESSEE HOURLY STATE WEATHER ROUNDUP
NATIONAL WEATHER SERVICE MEMPHIS TN
400 AM CDT SAT SEP 05 2015

TNZ002-004-019-021-049-052-054-088>092-051000-
WEST TENNESSEE

CITY           SKY/WX    TMP DP  RH WIND       PRES   REMARKS
MEMPHIS INTL   CLEAR     80  71  74 SE5       30.01R
NWS MEMPHIS      N/A     73 N/A N/A MISG        N/A
JACKSON        CLEAR     69  67  93 CALM      30.03R FOG
DYERSBURG      CLEAR     72  70  94 CALM      30.04R
UNION CITY     CLEAR    N/A N/A N/A CALM      30.02R
PARIS          CLEAR     66  64  94 CALM      30.04S
LEXINGTON      CLEAR     66  66 100 CALM      30.03R
$$

TNZ008-025-027-028-033-062-065-066-051000-
NORTH MIDDLE TENNESSEE

CITY           SKY/WX    TMP DP  RH WIND       PRES   REMARKS
NASHVILLE      PTCLDY    72  67  84 CALM      30.05R
CLARKSVILLE    CLEAR     68  66  93 CALM      30.04S FOG
SMYRNA         CLEAR    N/A N/A N/A CALM      30.06R
COOKEVILLE     CLOUDY    64  64 100 CALM      30.07R VSB 1/4
CROSSVILLE     CLEAR     65  63  93 CALM      30.12R FOG
$$

TNZ061-075-076-078-094-096-097-051000-
SOUTH MIDDLE TENNESSEE

CITY           SKY/WX    TMP DP  RH WIND       PRES   REMARKS
FAYETTEVILLE   CLEAR     70  68  94 CALM      30.05R
TULLAHOMA      CLEAR     66  64  94 CALM      30.07S
WINCHESTER     CLEAR     64  64 100 CALM      30.06R
MCMINNVILLE    MOCLDY    66  66 100 CALM      30.07R VSB 3/4
COLUMBIA       CLEAR    N/A N/A N/A CALM      30.04R
SHELBYVILLE    CLEAR     70  70 100 CALM      30.06R
$$

TNZ017-018-042-046-047-051000-
NORTHEAST TENNESSEE

CITY           SKY/WX    TMP DP  RH WIND       PRES   REMARKS
TRI CITIES     PTCLDY    65  62  90 CALM      30.14R
ELIZABETHTON   SUNNY     61  57  88 CALM      30.15R
$$

TNZ012-013-036-069-073-074-051000-
CENTRAL EAST TENNESSEE

CITY           SKY/WX    TMP DP  RH WIND       PRES   REMARKS
KNOXVILLE      PTCLDY    69  66  90 CALM      30.06S
OAK RIDGE      CLEAR     71  67  87 CALM      30.09R
GATLINBURG     SUNNY     66  63  88 CALM      30.08R
MORRISTOWN     SUNNY     70  64  83 E7        30.11R
$$

TNZ083-085-099-051000-
SOUTHEAST TENNESSEE

CITY           SKY/WX    TMP DP  RH WIND       PRES   REMARKS
CHATTANOOGA    CLEAR     72  68  87 CALM      30.06R
$$

SKY/WX REPORTED AS FAIR MEANS FEW OR NO CLOUDS BELOW
12 THOUSAND FEET.




USA.gov is the U.S. government's official web portal to all federal, state and local government web resources and services.